Weather History for V.C. Bird, Antigua

Change the Weather History Date:

Friday, March 23, 2012

  Actual Average Record
Temperature  
Mean Temperature 76 °F -  
Max Temperature 83 °F 83 °F 86 °F (1998)
Min Temperature 70 °F 74 °F 69 °F (2009)
Cooling Degree Days 12    
Growing Degree Days 26 (Base 50)    
Moisture  
Dew Point 69 °F    
Average Humidity 76    
Maximum Humidity 89    
Minimum Humidity 54    
Precipitation  
Precipitation 0.04 in - - ()
Sea Level Pressure  
Sea Level Pressure 29.93 in    
Wind  
Wind Speed 7 mph ()    
Max Wind Speed 13 mph    
Max Gust Speed -    
Visibility 8.8 miles    
Events Rain    
Averages and records for this station are not official NWS values.
T = Trace of Precipitation, MM = Missing Value Source: Averaged Metar Reports

Daily Weather History Graph

Daily Weather History Graph

Search for Another Location

Airport:

Trip Planner

Search our weather history database for the weather conditions in past years. The results will help you decide how hot, cold, wet, or windy it might be!

Date:

Astronomy

Mar. 23, 2012 Rise Set
Actual Time 6:08 AM AST 6:18 PM AST
Civil Twilight 5:46 AM AST 6:40 PM AST
Nautical Twilight 5:21 AM AST 7:05 PM AST
Astronomical Twilight 4:56 AM AST 7:30 PM AST
Moon 6:30 AM AST (3/23) 7:16 PM AST (3/23)
Length of Visible Light 12h 53m
Length of Day
12h 10m
New Moon, 1% of the Moon is Illuminated
Mar 23
New Moon
Mar 30
First Quarter
Apr 6
Full
Apr 13
Last Quarter
Apr 21
New

Hourly Weather History & Observations

Time (AST) Temp. Heat Index Dew Point Humidity Pressure Visibility Wind Dir Wind Speed Gust Speed Precip Events Conditions
12:00 AM 75.2 °F - 69.8 °F 83% 29.95 in 6.2 mi East 9.2 mph - N/A   Partly Cloudy
1:00 AM 75.2 °F - 69.8 °F 83% 29.92 in 6.2 mi ESE 9.2 mph - N/A   Partly Cloudy
2:00 AM 74 °F - 69 °F 78% 29.91 in 16 mi East 8.1 mph - -   Haze
2:00 AM 73.4 °F - 68.0 °F 83% 29.89 in 6.2 mi East 8.1 mph - N/A   Partly Cloudy
2:04 AM - - - N/A% - - North - - N/A   Unknown
3:00 AM 73.4 °F - 68.0 °F 83% 29.89 in 6.2 mi ESE 5.8 mph - N/A   Scattered Clouds
4:00 AM 71.6 °F - 68.0 °F 88% 29.89 in 6.2 mi East 4.6 mph - N/A   Scattered Clouds
5:00 AM 73 °F - 69 °F 82% 29.89 in 16 mi ENE 6.9 mph - -   Haze
5:00 AM 73.4 °F - 68.0 °F 83% 29.89 in 6.2 mi ENE 6.9 mph - N/A   Scattered Clouds
6:00 AM 71.6 °F - 68.0 °F 88% 29.89 in 6.2 mi Variable 2.3 mph - N/A   Scattered Clouds
7:00 AM 73.4 °F - 68.0 °F 83% 29.92 in 6.2 mi Variable 1.2 mph - N/A Rain Light Rain Showers
8:00 AM 76 °F - 72 °F 86% 29.94 in 16 mi 1.2 mph - - Rain Light Rain Showers
8:00 AM 77.0 °F - 73.4 °F 89% 29.92 in 6.2 mi Variable 1.2 mph - N/A   Mostly Cloudy
8:05 AM - - - N/A% - - North - - N/A   Unknown
9:00 AM 78.8 °F - 69.8 °F 74% 29.95 in 6.2 mi NE 11.5 mph - N/A   Mostly Cloudy
10:00 AM 77.0 °F - 68.0 °F 74% 29.98 in 6.2 mi ENE 6.9 mph - N/A   Mostly Cloudy
11:00 AM 80 °F - 70 °F 64% 29.97 in 17 mi NE 12.7 mph - -   Partly Cloudy
11:00 AM 80.6 °F 83.9 °F 69.8 °F 70% 29.95 in 6.2 mi NE 12.7 mph - N/A   Mostly Cloudy
11:05 AM - - - N/A% - - North - - N/A   Unknown
12:00 PM 78.8 °F - 69.8 °F 74% 29.95 in 6.2 mi NE 12.7 mph - N/A   Mostly Cloudy
1:00 PM 78.8 °F - 68.0 °F 69% 29.95 in 6.2 mi NNE 11.5 mph - N/A   Mostly Cloudy
2:00 PM 82 °F - 68 °F 54% 29.94 in 17 mi NE 11.5 mph - -   Mostly Cloudy
2:00 PM 82.4 °F 85.4 °F 68.0 °F 62% 29.92 in 6.2 mi NE 11.5 mph - N/A   Mostly Cloudy
3:00 PM 80.6 °F 82.7 °F 66.2 °F 61% 29.92 in 6.2 mi NNE 10.4 mph - N/A   Mostly Cloudy
4:00 PM 78.8 °F - 69.8 °F 74% 29.92 in 6.2 mi NNE 11.5 mph - N/A   Scattered Clouds
5:00 PM 78 °F - 68 °F 65% 29.93 in 17 mi NNE 9.2 mph - -   Haze
5:00 PM 78.8 °F - 68.0 °F 69% 29.92 in 6.2 mi NNE 9.2 mph - N/A   Scattered Clouds
6:00 PM 75.2 °F - 66.2 °F 73% 29.92 in 6.2 mi NNE 8.1 mph - N/A   Mostly Cloudy
7:00 PM 75.2 °F - 68.0 °F 78% 29.92 in 6.2 mi NE 8.1 mph - N/A   Scattered Clouds
8:00 PM 75 °F - 67 °F 71% 29.94 in 17 mi ENE 6.9 mph - -   Haze
8:00 PM 75.2 °F - 68.0 °F 78% 29.92 in 6.2 mi ENE 6.9 mph - N/A   Partly Cloudy
9:00 PM 75.2 °F - 68.0 °F 78% 29.92 in 6.2 mi East 6.9 mph - N/A   Partly Cloudy
10:00 PM 75.2 °F - 68.0 °F 78% 29.95 in 6.2 mi ENE 6.9 mph - N/A   Partly Cloudy
11:00 PM 75 °F - 69 °F 75% 29.96 in 17 mi ENE 3.5 mph - -   Haze
11:00 PM 75.2 °F - 68.0 °F 78% 29.95 in 6.2 mi ENE 3.5 mph - N/A   Partly Cloudy